DW8397 Weather Reports


time (UTC)temp
C
wind
direction
speed
KPH
gust
KPH
rain 1hr
cm
rain 24hr
cm
rain mn
cm
humidity
%
barometer
mb
20260508220038 7 196 1.6 14.5 0.00 0.00 0.00 64 1009.8
20260508214534 7 269 9.7 24.1 0.00 0.00 0.00 64 1009.8
20260508213044 8 254 9.7 22.5 0.00 0.00 0.00 63 1009.5
20260508211534 8 229 3.2 14.5 0.00 0.00 0.00 65 1009.3
20260508210034 8 174 8.0 20.9 0.00 0.00 0.00 62 1009.3
20260508204532 8 208 12.9 30.6 0.00 0.00 0.00 57 1009.3
20260508203034 9 237 8.0 16.1 0.00 0.00 0.00 52 1009.1
20260508201529 9 265 6.4 20.9 0.00 0.00 0.00 50 1008.9
20260508200039 10 261 3.2 12.9 0.00 0.00 0.00 52 1008.9
20260508194529 10 324 9.7 22.5 0.00 0.00 0.00 45 1008.8
20260508193028 10 195 9.7 19.3 0.00 0.00 0.00 45 1008.5
20260508191531 10 311 9.7 22.5 0.00 0.00 0.00 45 1008.7
20260508190035 10 261 6.4 22.5 0.00 0.00 0.00 42 1008.7
20260508184526 11 202 12.9 27.4 0.00 0.00 0.00 44 1008.7
20260508183022 10 217 4.8 19.3 0.00 0.00 0.00 46 1008.9
20260508181541 9 240 3.2 19.3 0.00 0.00 0.00 49 1009.0
20260508180021 9 206 6.4 20.9 0.00 0.00 0.00 48 1009.0
20260508174523 8 236 9.7 22.5 0.00 0.00 0.00 45 1009.1
20260508173021 9 203 12.9 24.1 0.00 0.00 0.00 44 1009.1
20260508171520 10 296 3.2 22.5 0.00 0.00 0.00 46 1009.1
20260508170022 10 260 1.6 16.1 0.00 0.00 0.00 48 1009.0
20260508164533 9 223 6.4 11.3 0.00 0.00 0.00 49 1009.3
20260508163017 8 304 4.8 24.1 0.00 0.00 0.00 49 1009.5
20260508161517 8 209 4.8 24.1 0.00 0.00 0.00 48 1009.4
20260508160032 9 195 8.0 20.9 0.00 0.00 0.00 45 1009.4
20260508154517 9 272 9.7 20.9 0.00 0.00 0.00 45 1009.3
20260508153017 10 277 12.9 20.9 0.00 0.00 0.00 43 1009.3
20260508151513 10 347 11.3 19.3 0.00 0.00 0.00 44 1009.0
20260508150010 9 221 8.0 19.3 0.00 0.00 0.00 45 1008.8
20260508144506 8 256 11.3 29.0 0.00 0.00 0.00 49 1009.1
20260508143006 8 325 17.7 33.8 0.00 0.00 0.00 45 1009.3
20260508141504 8 309 9.7 25.7 0.00 0.00 0.00 44 1009.3
20260508140001 8 229 16.1 27.4 0.00 0.00 0.00 45 1009.4
20260508134558 7 323 12.9 20.9 0.00 0.00 0.00 47 1009.5
20260508133054 6 278 16.1 29.0 0.00 0.00 0.00 51 1009.7
20260508131558 6 330 11.3 24.1 0.00 0.00 0.00 51 1009.6
20260508130049 6 323 1.6 20.9 0.00 0.00 0.00 56 1009.5
20260508124545 6 275 3.2 14.5 0.00 0.00 0.00 60 1009.4
20260508123042 5 241 3.2 9.7 0.00 0.00 0.00 69 1009.6
20260508121537 4 180 0.0 9.7 0.00 0.00 0.00 73 1009.7
20260508120038 3 199 0.0 6.4 0.00 0.00 0.00 80 1009.7
20260508114529 2 240 0.0 4.8 0.00 0.00 0.00 85 1009.8
20260508113027 1 74 0.0 0.0 0.00 0.00 0.00 89 1009.6
20260508111525 1 74 0.0 0.0 0.00 0.00 0.00 89 1009.5
20260508110023 0 323 0.0 0.0 0.00 0.00 0.00 89 1009.2
20260508104521 0 323 0.0 0.0 0.00 0.00 0.00 89 1009.1
20260508103029 0 323 0.0 0.0 0.00 0.00 0.00 90 1009.0
20260508101528 0 323 0.0 0.0 0.00 0.00 0.00 90 1008.8
20260508100015 0 323 0.0 0.0 0.00 0.00 0.00 90 1008.5
20260508094512 0 323 0.0 0.0 0.00 0.00 0.00 89 1008.5
20260508093012 0 323 0.0 0.0 0.00 0.00 0.00 88 1008.4
20260508091512 0 323 0.0 9.7 0.00 0.00 0.00 88 1008.3
20260508090009 0 321 0.0 3.2 0.00 0.00 0.00 87 1008.2
20260508084508 0 323 0.0 6.4 0.00 0.00 0.00 86 1008.2
20260508083007 0 13 0.0 4.8 0.00 0.00 0.00 86 1008.1
20260508081505 0 13 1.6 3.2 0.00 0.00 0.00 85 1008.2
20260508080007 0 13 0.0 0.0 0.00 0.00 0.00 85 1008.1
20260508074505 0 12 0.0 0.0 0.00 0.00 0.00 84 1007.8
20260508073007 0 12 0.0 0.0 0.00 0.00 0.00 85 1007.7
20260508071503 0 12 0.0 0.0 0.00 0.00 0.00 85 1007.7
20260508070001 0 12 0.0 0.0 0.00 0.00 0.00 83 1007.8
20260508064615 0 12 0.0 0.0 0.00 0.00 0.00 83 1007.8
20260508063108 0 12 0.0 0.0 0.00 0.00 0.00 82 1007.9
20260508061558 0 12 0.0 0.0 0.00 0.00 0.00 81 1008.0
20260508060054 0 12 0.0 0.0 0.00 0.00 0.00 80 1008.0
20260508054601 0 12 0.0 0.0 0.00 0.00 0.00 79 1008.1
20260508053051 0 12 0.0 0.0 0.00 0.00 0.00 78 1008.0
20260508051552 1 12 0.0 0.0 0.00 0.00 0.00 78 1007.9
20260508050046 1 12 0.0 0.0 0.00 0.00 0.00 77 1007.8
20260508044544 1 12 0.0 0.0 0.00 0.00 0.00 76 1008.3
20260508043046 1 12 0.0 0.0 0.00 0.00 0.00 75 1008.3
20260508041540 2 12 0.0 0.0 0.00 0.00 0.00 74 1008.4
20260508040041 2 12 0.0 0.0 0.00 0.00 0.00 74 1008.4
20260508034536 2 12 0.0 0.0 0.00 0.00 0.00 73 1008.4
20260508033034 2 12 0.0 0.0 0.00 0.00 0.00 70 1008.5
20260508031533 3 13 0.0 0.0 0.00 0.00 0.00 70 1008.3
20260508030031 3 12 0.0 0.0 0.00 0.00 0.00 67 1008.4
20260508024541 4 12 0.0 0.0 0.00 0.00 0.00 67 1008.4
20260508023030 5 12 0.0 0.0 0.00 0.00 0.00 64 1008.3
20260508021528 5 12 0.0 0.0 0.00 0.00 0.00 62 1008.2
20260508020027 5 12 0.0 0.0 0.00 0.00 0.00 60 1008.2
20260508014543 6 17 0.0 9.7 0.00 0.03 0.00 57 1008.0
20260508013028 6 5 0.0 12.9 0.00 0.03 0.00 56 1007.7
20260508011528 6 343 0.0 8.0 0.00 0.03 0.00 55 1007.6
20260508010030 6 313 6.4 12.9 0.00 0.03 0.00 53 1007.5
20260508004528 7 333 0.0 11.3 0.00 0.05 0.00 54 1007.3
20260508003049 7 350 8.0 14.5 0.00 0.05 0.00 52 1007.1
20260508001523 7 313 0.0 6.4 0.00 0.05 0.00 50 1006.9
20260508000024 8 298 0.0 9.7 0.00 0.05 0.00 50 1006.7
20260507234523 8 263 0.0 14.5 0.00 0.05 0.00 48 1006.7
20260507233031 8 243 8.0 20.9 0.00 0.05 0.00 46 1006.5
20260507231522 9 281 8.0 20.9 0.00 0.05 0.00 46 1006.4
20260507230021 10 292 4.8 17.7 0.00 0.05 0.00 46 1006.4
20260507224522 10 285 12.9 24.1 0.00 0.05 0.00 46 1006.5
20260507223021 10 242 9.7 22.5 0.00 0.05 0.00 46 1006.4
20260507221520 10 279 8.0 24.1 0.00 0.05 0.00 45 1006.4